• Join FlightAware (Why Join?)
  • Login
  • US Flag 
10:51AM EST


 

Airport Tracker/Info


-or-


 

Live Flight TrackerFlight Track Log ✈ EJA929 ✈ 06-Jul-2013 ✈ KSAN - KSJC

Flight Track Log - Related Links

Times and Time Zones

All times are in EDT time to prevent confusion due to time zone crossing. See the EJA929 flight status page for this flight to view local times or setup timezone preferences in your user account.

Time Position Orientation Groundspeed Altitude Reporting Facility
EDT Latitude Longitude Course Direction KTS MPH feet Rate Location/Type
06:58PM 32.7489 -117.2214 298° West 186 214 1,900  Level Los Angeles Center
06:59PM 32.7786 -117.2869 298° West 231 266 5,900 3,512 Climbing Los Angeles Center
07:00PM 32.8269 -117.3600 308° West 260 299 9,100 3,290 Climbing Los Angeles Center
07:01PM 32.8889 -117.4422 312° West 308 354 12,700 2,927 Climbing Los Angeles Center
07:02PM 32.9519 -117.5267 312° West 329 379 15,100 1,902 Climbing Los Angeles Center
07:03PM 33.0183 -117.6167 311° West 345 397 16,600 1,512 Climbing Los Angeles Center
07:04PM 33.0900 -117.7150 311° West 374 430 18,200 1,659 Climbing Los Angeles Center
07:05PM 33.1781 -117.8411 310° West 403 464 20,000 1,597 Climbing Los Angeles Center
07:06PM 33.2547 -117.9506 310° West 420 483 21,500 1,463 Climbing Los Angeles Center
07:07PM 33.3350 -118.0619 311° West 433 498 23,000 1,463 Climbing Los Angeles Center
07:08PM 33.4147 -118.1764 310° West 442 509 24,500 1,452 Climbing Los Angeles Center
07:09PM 33.4944 -118.2917 310° West 445 512 26,000 1,512 Climbing Los Angeles Center
07:10PM 33.5769 -118.4114 310° West 451 519 27,600 1,512 Climbing Los Angeles Center
07:11PM 33.6625 -118.5339 310° West 465 535 29,100 1,161 Climbing Los Angeles Center
07:12PM 33.7483 -118.6561 310° West 471 542 30,000 488 Climbing Los Angeles Center
07:13PM 33.8367 -118.7850 310° West 493 567 30,100 49 Climbing Los Angeles Center
07:14PM 33.9292 -118.9186 310° West 511 588 30,100 -49 Level Los Angeles Center
07:15PM 34.0431 -119.0850 310° West 530 610 30,000 -49 Descending Los Angeles Center
07:17PM 34.1372 -119.2236 309° West 533 613 30,000  Level Los Angeles Center
07:18PM 34.2319 -119.3622 310° West 536 617 30,000 49 Level Los Angeles Center
07:19PM 34.3425 -119.4800 319° Northwest 533 613 30,100 49 Climbing Los Angeles Center
07:20PM 34.4611 -119.5889 323° Northwest 533 613 30,100 -48 Level Los Angeles Center
07:21PM 34.5786 -119.6964 323° Northwest 530 610 30,000 -44 Descending Los Angeles Center
07:22PM 34.6972 -119.8028 324° Northwest 530 610 30,000  Level Los Angeles Center
07:23PM 34.8364 -119.9300 323° Northwest 526 605 30,000  Level Los Angeles Center
07:24PM 34.9769 -120.0600 323° Northwest 529 609 30,000  Level Los Angeles Center
07:25PM 35.0878 -120.1625 323° Northwest 527 606 30,000  Level Los Angeles Center
07:26PM 35.2039 -120.2700 323° Northwest 527 606 30,000  Level Los Angeles Center
07:27PM 35.3203 -120.3783 323° Northwest 529 609 30,000  Level Los Angeles Center
07:28PM 35.4336 -120.4892 321° Northwest 528 608 30,000  Level Los Angeles Center
07:29PM 35.5714 -120.6183 323° Northwest 522 601 30,000  Level Los Angeles Center
07:30PM 35.6814 -120.7228 322° Northwest 521 600 30,000  Level Los Angeles Center
07:31PM 35.7969 -120.8317 323° Northwest 521 600 30,000  Level Los Angeles Center
07:32PM 35.9103 -120.9397 322° Northwest 517 595 30,000  Level Los Angeles Center
07:33PM 36.0222 -121.0481 322° Northwest 517 595 30,000 -1,230 Level Oakland Center
07:34PM 36.1397 -121.1494 325° Northwest 517 595 27,500 -2,579 Descending Oakland Center
07:35PM 36.2547 -121.2486 325° Northwest 509 586 24,800 -2,607 Descending Oakland Center
07:36PM 36.3667 -121.3453 325° Northwest 496 571 22,200 -2,754 Descending Oakland Center
07:37PM 36.4933 -121.4572 325° Northwest 473 544 19,200 -2,803 Descending Oakland Center
07:38PM 36.6058 -121.5317 332° Northwest 467 537 16,500 -2,803 Descending Oakland Center
07:39PM 36.7331 -121.5383 358° North 462 532 13,500 -2,656 Descending Oakland Center
07:40PM 36.8475 -121.5483 356° North 416 479 11,100 -2,083 Descending Oakland Center
07:41PM 36.9353 -121.5561 356° North 334 384 9,300 -1,636 Descending Oakland Center
07:42PM 37.0081 -121.5972 336° Northwest 299 344 7,800 -1,475 Descending Oakland Center
07:43PM 37.0739 -121.6464 329° Northwest 281 323 6,300 -1,377 Descending Oakland Center
07:44PM 37.1369 -121.6928 330° Northwest 269 310 5,000 -1,033 Descending Oakland Center
07:45PM 37.1922 -121.7439 324° Northwest 259 298 4,200 -1,082 Descending Oakland Center
07:46PM 37.2447 -121.8014 319° Northwest 254 292 2,800 -1,091 Descending Oakland Center
07:47PM 37.2931 -121.8539 319° Northwest 237 273 2,000 -843 Descending Oakland Center
07:48PM 37.3156 -121.8808 316° Northwest 169 194 1,100 -787 Descending Oakland Center
07:49PM 37.3419 -121.9092 320° Northwest 139 160 400 -689 Descending Oakland Center
07:51PM 37.3500 -121.9167 North  Level FlightAware Approximate
07:58PM 37.3627 -121.9291 North  Level Estimated